Regional Weather Roundup
Issued by NWS

Home | Current Version | Previous Version | Text Only | Print | Product List | Glossary On
Versions: 1 2 3 4 5 6 7 8 9 10 11 12 13 14 15 16 17 18 19 20 21 22 23 24 25 26 27 28 29 30 31 32 33 34 35 36 37 38 39 40 41 42 43 44 45 46 47 48 49 50
000
ASUS44 KBMX 240210
RWRAL

ALABAMA REGIONAL WEATHER ROUNDUP
NATIONAL WEATHER SERVICE BIRMINGHAM AL
900 PM CDT THU MAR 23 2017

NOTE: "FAIR" INDICATES FEW OR NO CLOUDS BELOW 12,000 FEET
WITH NO SIGNIFICANT WEATHER AND/OR OBSTRUCTIONS TO VISIBILITY.

THE REMARK "TC" DENOTES TEMPERATURE IN DEGREES CELSIUS.

ALZ001>011-014-016>018-020-240300-
NORTH ALABAMA

CITY           SKY/WX    TMP DP  RH WIND       PRES   REMARKS
MUSCLE SHOALS  CLEAR     66  49  54 SE8       30.22R
HUNTSVILLE     CLEAR     66  49  54 SE14      30.25R
DECATUR        CLEAR     65  48  54 E10       30.25R
HALEYVILLE     FAIR      68  52  56 SE6       30.25R
GADSDEN        CLEAR     64  48  56 SE8       30.32R
$$

ALZ012-013-022-023-030>036-040>044-240300-
WEST CENTRAL ALABAMA

CITY           SKY/WX    TMP DP  RH WIND       PRES   REMARKS
TUSCALOOSA     CLEAR     71  55  56 SE12G21   30.24R
$$

ALZ015-024>027-033>036-040>044-240300-
CENTRAL ALABAMA

CITY           SKY/WX    TMP DP  RH WIND       PRES   REMARKS
BIRMINGHAM     PTCLDY    66  51  58 SE12      30.31R
MONTGOMERY     CLEAR     66  51  58 E10       30.31R
SHELBY CO ARPT CLEAR     65  53  65 SE9       30.30R
MAXWELL AFB    CLEAR     65  53  64 E10       30.30R
GREENVILLE     FAIR      66  53  63 SE12      30.29R
$$

ALZ019-021-028-029-037-038-045>048-240300-
EAST CENTRAL ALABAMA

CITY           SKY/WX    TMP DP  RH WIND       PRES   REMARKS
ANNISTON       CLOUDY    64  48  56 SE8       30.34R
ALEXANDER CITY MOCLDY    63  49  61 E8        30.34R
AUBURN         CLOUDY    62  49  62 E7        30.36R
$$

ALZ051>064-240300-
SOUTHWEST ALABAMA

CITY           SKY/WX    TMP DP  RH WIND       PRES   REMARKS
MOBILE         PTCLDY    68  62  81 SE10      30.25R
BROOKLEY FIELD PTCLDY    69  66  90 SE14      30.26S
EVERGREEN      CLOUDY    71  58  63 SE10      30.28R
$$

ALZ049-050-065>069-240300-
SOUTHEAST ALABAMA

CITY           SKY/WX    TMP DP  RH WIND       PRES   REMARKS
DOTHAN         CLOUDY    66  56  70 E9        30.36R
OZARK          CLOUDY    67  55  66 E7        30.32R
TROY           CLEAR     62  54  74 E7        30.33R
EUFAULA        CLOUDY    66  53  63 E3        30.34R
$$



USA.gov is the U.S. government's official web portal to all federal, state and local government web resources and services.